TimeCST,TemperatureF,Dew PointF,Humidity,Sea Level PressureIn,VisibilityMPH,Wind Direction,Wind SpeedMPH,Gust SpeedMPH,PrecipitationIn,Events,Conditions,WindDirDegrees,DateUTC
12:23 AM,50.0,44.6,82,30.24,10.0,NE,6.9,-,N/A,,Overcast,40,2012-11-16 06:23:00
12:55 AM,50.0,46.0,86,30.24,10.0,NE,5.8,-,N/A,,Overcast,40,2012-11-16 06:55:00
1:55 AM,49.5,45.9,87,30.23,10.0,NE,5.8,-,N/A,,Overcast,40,2012-11-16 07:55:00
2:55 AM,49.6,45.7,86,30.23,10.0,ENE,5.8,-,N/A,,Overcast,60,2012-11-16 08:55:00
3:55 AM,49.3,45.0,85,30.22,10.0,ENE,9.2,-,N/A,,Overcast,60,2012-11-16 09:55:00
4:55 AM,49.3,45.3,86,30.22,10.0,ENE,9.2,-,N/A,,Overcast,60,2012-11-16 10:55:00
5:55 AM,49.1,45.5,87,30.24,10.0,NE,6.9,-,N/A,,Overcast,50,2012-11-16 11:55:00
6:55 AM,49.1,45.5,87,30.25,10.0,NE,9.2,-,N/A,,Overcast,50,2012-11-16 12:55:00
7:27 AM,48.2,46.4,93,30.26,10.0,NE,8.1,-,N/A,,Overcast,40,2012-11-16 13:27:00
7:55 AM,48.4,45.3,89,30.27,10.0,ENE,10.4,-,N/A,,Overcast,60,2012-11-16 13:55:00
7:59 AM,48.2,44.6,87,30.26,10.0,ENE,11.5,-,N/A,,Overcast,60,2012-11-16 13:59:00
8:11 AM,48.2,44.6,87,30.27,10.0,ENE,8.1,-,N/A,,Overcast,60,2012-11-16 14:11:00
8:20 AM,48.2,44.6,87,30.28,10.0,ENE,9.2,-,N/A,,Overcast,70,2012-11-16 14:20:00
8:21 AM,48.2,44.6,87,30.26,10.0,ENE,9.2,-,N/A,,Overcast,60,2012-11-16 14:21:00
8:55 AM,48.4,45.3,89,30.28,10.0,NE,6.9,-,N/A,,Overcast,50,2012-11-16 14:55:00
9:46 AM,50.0,46.4,87,30.28,10.0,NE,9.2,-,N/A,,Overcast,40,2012-11-16 15:46:00
9:55 AM,49.5,45.7,87,30.28,10.0,NE,9.2,-,N/A,,Overcast,50,2012-11-16 15:55:00
10:55 AM,50.5,46.2,85,30.27,10.0,NNE,8.1,-,0.00,Rain,Light Rain,20,2012-11-16 16:55:00
11:12 AM,51.8,46.4,82,30.27,10.0,NE,6.9,-,N/A,,Overcast,50,2012-11-16 17:12:00
11:55 AM,52.3,46.9,82,30.26,10.0,NNE,10.4,-,0.00,,Overcast,20,2012-11-16 17:55:00
12:21 PM,53.6,46.4,77,30.25,10.0,NE,9.2,-,N/A,,Overcast,40,2012-11-16 18:21:00
12:55 PM,53.6,47.3,79,30.24,10.0,NNE,10.4,-,N/A,,Overcast,30,2012-11-16 18:55:00
1:55 PM,53.4,47.7,81,30.23,10.0,NNE,8.1,-,N/A,,Overcast,20,2012-11-16 19:55:00
2:55 PM,54.1,48.2,80,30.23,10.0,NNE,6.9,-,N/A,,Overcast,30,2012-11-16 20:55:00
3:16 PM,53.6,48.2,82,30.23,10.0,NE,5.8,-,N/A,Rain,Light Rain,50,2012-11-16 21:16:00
3:22 PM,55.4,48.2,77,30.22,10.0,NE,4.6,-,N/A,,Overcast,50,2012-11-16 21:22:00
3:36 PM,55.4,48.2,77,30.22,10.0,NE,5.8,-,N/A,,Scattered Clouds,40,2012-11-16 21:36:00
3:37 PM,55.4,48.2,77,30.22,10.0,NE,4.6,-,N/A,,Light Drizzle,40,2012-11-16 21:37:00
3:50 PM,55.4,48.2,77,30.22,10.0,NNE,3.5,-,N/A,,Partly Cloudy,30,2012-11-16 21:50:00
3:55 PM,55.2,48.9,79,30.22,10.0,NNE,5.8,-,0.00,,Partly Cloudy,30,2012-11-16 21:55:00
4:00 PM,55.4,48.2,77,30.22,10.0,NNE,5.8,-,N/A,Rain,Light Rain,30,2012-11-16 22:00:00
4:15 PM,53.6,48.2,82,30.22,10.0,NE,4.6,-,N/A,,Scattered Clouds,40,2012-11-16 22:15:00
4:55 PM,52.0,48.0,86,30.22,10.0,North,3.5,-,0.00,,Clear,10,2012-11-16 22:55:00
5:55 PM,50.4,47.5,90,30.23,10.0,Calm,Calm,-,N/A,,Clear,0,2012-11-16 23:55:00
6:55 PM,47.3,46.0,95,30.24,10.0,North,3.5,-,N/A,,Clear,350,2012-11-17 00:55:00
7:55 PM,44.4,43.9,98,30.25,10.0,North,3.5,-,N/A,,Clear,10,2012-11-17 01:55:00
8:55 PM,44.1,43.7,99,30.27,10.0,North,6.9,-,N/A,,Clear,360,2012-11-17 02:55:00
9:55 PM,44.4,44.1,99,30.27,10.0,North,8.1,-,N/A,,Clear,360,2012-11-17 03:55:00
10:55 PM,43.5,43.0,98,30.27,10.0,NNE,4.6,-,N/A,,Clear,20,2012-11-17 04:55:00
11:55 PM,42.3,41.9,99,30.27,10.0,North,5.8,-,N/A,,Clear,10,2012-11-17 05:55:00